GW3838 Weather Reports


time (UTC)temp
C
wind
direction
speed
KPH
gust
KPH
rain 1hr
cm
rain 24hr
cm
rain mn
cm
humidity
%
barometer
mb
20260510095014 18 174 0.0 3.2 0.00 0.00 0.00 99 1021.1
20260510094508 18 171 1.6 1.6 0.00 0.00 0.00 99 1021.1
20260510094004 18 179 1.6 3.2 0.00 0.00 0.00 99 1021.0
20260510093500 18 199 1.6 3.2 0.00 0.00 0.00 99 1021.3
20260510092957 18 183 1.6 3.2 0.00 0.00 0.00 99 1021.0
20260510092449 18 178 1.6 3.2 0.00 0.00 0.00 99 1021.1
20260510091948 18 190 3.2 4.8 0.00 0.00 0.00 99 1021.3
20260510091445 18 181 1.6 3.2 0.00 0.00 0.00 99 1020.9
20260510090941 18 208 4.8 4.8 0.00 0.00 0.00 99 1021.2
20260510090438 18 192 3.2 4.8 0.00 0.00 0.00 98 1021.2
20260510085934 18 213 4.8 4.8 0.00 0.00 0.00 98 1020.9
20260510085429 18 196 3.2 3.2 0.00 0.00 0.00 98 1021.1
20260510084925 18 192 0.0 1.6 0.00 0.00 0.00 98 1020.7
20260510084422 18 193 3.2 3.2 0.00 0.00 0.00 98 1020.7
20260510083919 18 171 1.6 3.2 0.00 0.00 0.00 98 1020.6
20260510083415 18 169 0.0 0.0 0.00 0.00 0.00 98 1020.4
20260510082911 18 182 0.0 0.0 0.00 0.00 0.00 98 1020.4
20260510082409 18 182 1.6 1.6 0.00 0.00 0.00 98 1020.3
20260510081907 18 181 0.0 1.6 0.00 0.00 0.00 98 1019.9
20260510081403 18 181 0.0 0.0 0.00 0.00 0.00 98 1019.9
20260510080900 18 182 0.0 1.6 0.00 0.00 0.00 98 1019.9
20260510080354 18 181 0.0 1.6 0.00 0.00 0.00 98 1020.0
20260510075852 18 181 0.0 1.6 0.00 0.00 0.00 98 1020.1
20260510075349 18 182 1.6 1.6 0.00 0.00 0.00 98 1019.9
20260510074846 18 182 1.6 1.6 0.00 0.00 0.00 98 1020.2
20260510074343 18 179 0.0 0.0 0.00 0.00 0.00 98 1019.6
20260510073839 18 180 0.0 0.0 0.00 0.00 0.00 98 1019.6
20260510073335 18 185 3.2 3.2 0.00 0.00 0.00 98 1019.6
20260510072831 18 118 0.0 1.6 0.00 0.00 0.00 97 1019.5
20260510072328 18 138 1.6 1.6 0.00 0.00 0.00 97 1019.5
20260510071824 18 174 1.6 1.6 0.00 0.00 0.00 97 1019.6
20260510071320 18 171 0.0 0.0 0.00 0.00 0.00 97 1019.8
20260510070820 18 171 0.0 0.0 0.00 0.00 0.00 97 1019.6
20260510070311 18 172 0.0 0.0 0.00 0.00 0.00 97 1019.6
20260510065810 18 171 1.6 1.6 0.00 0.00 0.00 97 1019.9
20260510065307 18 177 1.6 3.2 0.00 0.00 0.00 97 1019.7
20260510064804 18 176 0.0 1.6 0.00 0.00 0.00 97 1019.5
20260510064302 18 196 3.2 3.2 0.00 0.00 0.00 97 1019.7
20260510063757 18 169 0.0 0.0 0.00 0.00 0.00 97 1019.5
20260510063254 18 170 0.0 3.2 0.00 0.00 0.00 97 1019.5
20260510062751 18 188 1.6 3.2 0.00 0.00 0.00 97 1019.7
20260510062246 18 201 3.2 4.8 0.00 0.00 0.00 97 1019.8
20260510061742 18 209 4.8 9.7 0.00 0.00 0.00 97 1020.0
20260510061239 18 176 4.8 4.8 0.00 0.00 0.00 97 1020.1
20260510060735 18 170 3.2 3.2 0.00 0.00 0.00 97 1020.2
20260510060232 18 194 1.6 3.2 0.00 0.00 0.00 97 1020.3
20260510055729 18 174 1.6 3.2 0.00 0.00 0.00 97 1020.4
20260510055227 18 192 1.6 3.2 0.00 0.00 0.00 97 1020.0
20260510054727 18 212 3.2 3.2 0.00 0.00 0.00 97 1020.1
20260510054223 18 176 1.6 4.8 0.00 0.00 0.00 97 1020.1
20260510053722 18 173 1.6 1.6 0.00 0.00 0.00 97 1020.2
20260510053219 18 185 1.6 3.2 0.00 0.00 0.00 97 1019.8
20260510052715 18 172 0.0 3.2 0.00 0.00 0.00 97 1020.1
20260510052211 18 174 1.6 3.2 0.00 0.00 0.00 97 1020.0
20260510051707 18 213 3.2 4.8 0.00 0.00 0.00 97 1020.3
20260510051204 18 181 1.6 3.2 0.00 0.00 0.00 97 1020.2
20260510050701 18 203 3.2 4.8 0.00 0.00 0.00 97 1020.4
20260510050158 18 184 1.6 4.8 0.00 0.00 0.00 97 1020.3
20260510045655 18 184 1.6 3.2 0.00 0.00 0.00 97 1020.1
20260510045152 18 184 1.6 3.2 0.00 0.00 0.00 97 1020.1
20260510044648 18 214 3.2 4.8 0.00 0.00 0.00 97 1020.7
20260510044145 18 195 3.2 4.8 0.00 0.00 0.00 97 1020.7
20260510043641 18 228 4.8 4.8 0.00 0.00 0.00 97 1020.5
20260510043137 18 171 1.6 3.2 0.00 0.00 0.00 97 1020.3
20260510042635 18 232 4.8 8.0 0.00 0.00 0.00 97 1020.4
20260510042131 18 197 3.2 8.0 0.00 0.00 0.00 97 1020.5
20260510041628 18 201 1.6 3.2 0.00 0.00 0.00 97 1020.5
20260510041125 18 188 3.2 4.8 0.00 0.00 0.00 97 1020.4
20260510040623 18 236 3.2 3.2 0.00 0.00 0.00 97 1020.6
20260510040119 18 178 1.6 1.6 0.00 0.00 0.00 97 1020.3
20260510035615 18 170 0.0 1.6 0.00 0.00 0.00 96 1020.3
20260510035114 18 167 0.0 1.6 0.00 0.00 0.00 96 1020.3
20260510034612 18 182 1.6 3.2 0.00 0.00 0.00 96 1020.3
20260510034109 18 207 3.2 4.8 0.00 0.00 0.00 96 1020.4
20260510033606 18 167 1.6 1.6 0.00 0.00 0.00 96 1020.4
20260510033103 18 189 1.6 1.6 0.00 0.00 0.00 96 1020.3
20260510032559 18 180 1.6 4.8 0.00 0.00 0.00 96 1020.1
20260510032055 18 196 3.2 3.2 0.00 0.00 0.00 96 1020.1
20260510031550 18 203 3.2 3.2 0.00 0.00 0.00 96 1019.8
20260510031046 18 171 1.6 3.2 0.00 0.00 0.00 96 1019.8
20260510030542 18 177 1.6 3.2 0.00 0.00 0.00 96 1020.0
20260510030040 18 174 0.0 3.2 0.00 0.00 0.00 96 1020.0
20260510025537 18 181 3.2 3.2 0.00 0.00 0.00 96 1020.1
20260510025035 18 192 1.6 3.2 0.00 0.00 0.00 95 1020.2
20260510024531 18 183 1.6 4.8 0.00 0.00 0.00 95 1020.2
20260510024027 18 183 1.6 3.2 0.00 0.00 0.00 95 1020.5
20260510023523 19 183 1.6 3.2 0.00 0.00 0.00 95 1020.3
20260510023020 19 174 1.6 1.6 0.00 0.00 0.00 95 1020.1
20260510022519 19 173 0.0 1.6 0.00 0.00 0.00 95 1020.2
20260510022014 19 174 0.0 1.6 0.00 0.00 0.00 95 1020.2
20260510021511 19 174 1.6 3.2 0.00 0.00 0.00 95 1020.3
20260510021009 19 188 3.2 3.2 0.00 0.00 0.00 94 1020.0
20260510020503 19 174 0.0 3.2 0.00 0.00 0.00 94 1020.2
20260510015958 19 174 0.0 3.2 0.00 0.00 0.00 94 1020.3
20260510015454 19 172 0.0 1.6 0.00 0.00 0.00 94 1020.1
20260510014949 19 178 1.6 3.2 0.00 0.00 0.00 94 1019.8
20260510014447 19 186 1.6 3.2 0.00 0.00 0.00 93 1020.0
20260510013944 19 217 3.2 4.8 0.00 0.00 0.00 93 1019.9
20260510013433 20 183 3.2 8.0 0.00 0.00 0.00 93 1019.7
20260510012929 20 179 3.2 4.8 0.00 0.00 0.00 93 1019.6
20260510012424 20 206 3.2 8.0 0.00 0.00 0.00 93 1019.5
20260510011919 20 182 1.6 8.0 0.00 0.00 0.00 92 1019.4
20260510011414 20 205 4.8 9.7 0.00 0.00 0.00 92 1019.5
20260510010910 20 231 3.2 4.8 0.00 0.00 0.00 92 1019.3
20260510010408 20 189 1.6 3.2 0.00 0.00 0.00 92 1019.2
20260510005904 20 194 3.2 4.8 0.00 0.00 0.00 91 1019.3
20260510005401 20 185 1.6 4.8 0.00 0.00 0.00 91 1019.4
20260510004858 20 181 1.6 3.2 0.00 0.00 0.00 91 1019.1
20260510004355 20 180 3.2 3.2 0.00 0.00 0.00 91 1018.9
20260510003853 20 200 4.8 4.8 0.00 0.00 0.00 90 1018.9
20260510003350 20 172 3.2 3.2 0.00 0.00 0.00 90 1018.6
20260510002848 20 181 1.6 1.6 0.00 0.00 0.00 89 1018.6
20260510002346 20 248 1.6 4.8 0.00 0.00 0.00 89 1018.9
20260510001843 20 174 1.6 1.6 0.00 0.00 0.00 88 1018.7
20260510001341 20 197 4.8 4.8 0.00 0.00 0.00 88 1018.5
20260510000837 21 177 0.0 3.2 0.00 0.00 0.00 88 1018.6
20260510000334 21 181 1.6 1.6 0.00 0.00 0.00 87 1018.6
20260509235831 21 211 1.6 4.8 0.00 0.00 0.00 87 1018.7
20260509235327 21 219 4.8 4.8 0.00 0.00 0.00 87 1018.8
20260509234823 21 177 0.0 3.2 0.00 0.00 0.00 87 1018.6
20260509234320 21 252 4.8 8.0 0.00 0.00 0.00 86 1018.2
20260509233818 21 222 4.8 9.7 0.00 0.00 0.00 86 1018.5
20260509233316 21 253 6.4 11.3 0.00 0.00 0.00 86 1018.5
20260509232811 21 221 3.2 8.0 0.00 0.00 0.00 86 1018.6
20260509232309 21 242 3.2 9.7 0.00 0.00 0.00 86 1018.7
20260509231805 21 165 1.6 4.8 0.00 0.00 0.00 86 1018.5
20260509231302 21 227 4.8 11.3 0.00 0.00 0.00 86 1018.3
20260509230800 21 292 4.8 4.8 0.00 0.00 0.00 85 1018.2
20260509230257 21 192 1.6 4.8 0.00 0.00 0.00 85 1018.2
20260509225751 21 218 3.2 4.8 0.00 0.00 0.00 85 1018.1
20260509225248 21 204 3.2 11.3 0.00 0.00 0.00 85 1018.1
20260509224744 21 222 4.8 8.0 0.00 0.00 0.00 84 1018.3
20260509224241 21 249 4.8 4.8 0.00 0.00 0.00 84 1018.2
20260509223738 21 228 3.2 3.2 0.00 0.00 0.00 84 1017.9
20260509223235 21 189 1.6 4.8 0.00 0.00 0.00 83 1018.4
20260509222732 21 281 4.8 12.9 0.00 0.00 0.00 83 1017.9
20260509222227 21 218 4.8 8.0 0.00 0.00 0.00 83 1018.4
20260509221723 22 261 8.0 11.3 0.00 0.00 0.00 82 1018.1
20260509221219 22 197 4.8 9.7 0.00 0.00 0.00 82 1018.1
20260509220715 22 240 8.0 14.5 0.00 0.00 0.00 82 1018.1
20260509220212 22 227 8.0 11.3 0.00 0.00 0.00 81 1018.0
20260509215707 22 222 6.4 9.7 0.00 0.00 0.00 81 1018.2
20260509215204 22 229 6.4 8.0 0.00 0.00 0.00 81 1018.1
20260509214702 22 237 3.2 9.7 0.00 0.00 0.00 80 1017.9
20260509214159 22 267 4.8 8.0 0.00 0.00 0.00 80 1017.9
20260509213655 22 236 4.8 9.7 0.00 0.00 0.00 81 1017.9
20260509213151 22 205 11.3 12.9 0.00 0.00 0.00 81 1017.9
20260509212648 22 285 6.4 11.3 0.00 0.00 0.00 81 1018.0
20260509212145 22 249 8.0 11.3 0.00 0.00 0.00 80 1018.0
20260509211641 22 243 3.2 11.3 0.00 0.00 0.00 80 1018.3
20260509211137 22 241 4.8 11.3 0.00 0.00 0.00 80 1018.2
20260509210634 22 254 6.4 9.7 0.00 0.00 0.00 81 1018.1
20260509210131 22 227 3.2 9.7 0.00 0.00 0.00 83 1018.3
20260509205626 22 330 3.2 8.0 0.00 0.00 0.00 84 1018.0
20260509205120 21 233 6.4 8.0 0.00 0.00 0.00 84 1018.1
20260509204617 22 220 4.8 9.7 0.00 0.00 0.00 84 1018.2
20260509204108 22 269 8.0 11.3 0.00 0.00 0.00 84 1018.2
20260509203604 21 234 4.8 9.7 0.00 0.00 0.00 85 1018.4
20260509203103 21 188 8.0 9.7 0.00 0.00 0.00 85 1018.4
20260509202556 22 205 3.2 11.3 0.00 0.00 0.00 84 1018.5
20260509202052 21 244 4.8 8.0 0.00 0.00 0.00 84 1018.5
20260509201547 22 247 6.4 8.0 0.00 0.00 0.00 85 1018.5
20260509201045 22 73 3.2 9.7 0.00 0.00 0.00 85 1018.6
20260509200539 21 201 1.6 4.8 0.00 0.00 0.00 85 1018.5
20260509200036 22 233 3.2 4.8 0.00 0.00 0.00 85 1018.4
20260509195531 21 198 1.6 8.0 0.00 0.00 0.00 85 1018.5
20260509195026 21 284 6.4 8.0 0.00 0.00 0.00 85 1018.6
20260509194521 22 185 1.6 3.2 0.00 0.00 0.00 84 1018.5
20260509194018 22 186 3.2 4.8 0.00 0.00 0.00 84 1018.5
20260509193513 21 96 1.6 4.8 0.00 0.00 0.00 84 1018.7
20260509193010 22 296 4.8 4.8 0.00 0.00 0.00 84 1018.7
20260509192506 22 176 1.6 4.8 0.00 0.00 0.00 84 1018.7
20260509192001 22 243 1.6 3.2 0.00 0.00 0.00 84 1018.8
20260509191456 21 194 1.6 8.0 0.00 0.00 0.00 84 1018.8
20260509190952 21 273 4.8 8.0 0.00 0.00 0.00 83 1019.1
20260509190449 22 180 3.2 9.7 0.00 0.00 0.00 83 1019.2
20260509185946 22 264 9.7 12.9 0.00 0.00 0.00 82 1019.6
20260509185438 22 199 3.2 4.8 0.00 0.00 0.00 83 1019.2
20260509184934 22 278 6.4 9.7 0.00 0.00 0.00 82 1019.4
20260509184432 22 133 1.6 8.0 0.00 0.00 0.00 82 1019.6
20260509183928 22 260 8.0 9.7 0.00 0.00 0.00 82 1019.6
20260509183423 22 236 4.8 11.3 0.00 0.00 0.00 83 1019.8
20260509182920 22 331 4.8 8.0 0.00 0.00 0.00 83 1019.4
20260509182417 22 283 4.8 4.8 0.00 0.00 0.00 82 1019.7
20260509181914 22 263 6.4 8.0 0.00 0.00 0.00 82 1019.8
20260509181412 22 312 6.4 8.0 0.00 0.00 0.00 81 1019.9
20260509180909 22 272 3.2 4.8 0.00 0.00 0.00 81 1019.5
20260509180404 22 294 3.2 4.8 0.00 0.00 0.00 80 1019.6
20260509175901 22 224 9.7 11.3 0.00 0.00 0.00 79 1019.8
20260509175357 22 210 1.6 4.8 0.00 0.00 0.00 79 1020.2
20260509174853 22 10 6.4 11.3 0.00 0.00 0.00 78 1020.1
20260509174349 22 181 3.2 11.3 0.00 0.00 0.00 78 1019.9
20260509173845 22 184 1.6 9.7 0.00 0.00 0.00 78 1019.3
20260509173340 22 232 8.0 14.5 0.00 0.00 0.00 77 1018.9
20260509172837 22 252 4.8 11.3 0.00 0.00 0.00 79 1018.6
20260509172334 22 227 6.4 11.3 0.00 0.00 0.00 80 1018.4
20260509171830 22 199 12.9 16.1 0.00 0.00 0.00 81 1018.4
20260509171325 22 189 8.0 14.5 0.00 0.00 0.00 82 1018.8
20260509170822 22 216 6.4 9.7 0.00 0.00 0.00 83 1018.6
20260509170318 22 201 9.7 12.9 0.00 0.00 0.00 82 1018.5
20260509165818 23 188 8.0 9.7 0.00 0.00 0.00 81 1018.7
20260509165313 23 227 6.4 11.3 0.00 0.00 0.00 79 1019.0
20260509164809 23 250 8.0 9.7 0.00 0.00 0.00 76 1019.4
20260509164305 22 225 4.8 8.0 0.00 0.00 0.00 77 1019.3
20260509163801 22 246 4.8 11.3 0.00 0.00 0.00 78 1019.5
20260509163258 22 17 11.3 12.9 0.00 0.00 0.00 79 1019.6
20260509162757 23 184 3.2 3.2 0.00 0.00 0.00 82 1019.4
20260509162251 22 251 3.2 4.8 0.00 0.00 0.00 81 1019.2
20260509161747 22 302 6.4 9.7 0.00 0.00 0.00 81 1019.4
20260509161243 22 269 4.8 8.0 0.00 0.00 0.00 82 1019.5
20260509160739 22 238 4.8 8.0 0.00 0.00 0.00 81 1019.6
20260509160235 22 223 3.2 9.7 0.00 0.00 0.00 82 1019.5
20260509155730 22 231 4.8 12.9 0.00 0.00 0.00 83 1019.4
20260509155227 22 257 6.4 11.3 0.00 0.00 0.00 83 1019.4
20260509154723 22 304 4.8 8.0 0.00 0.00 0.00 82 1019.5
20260509154220 22 274 6.4 11.3 0.00 0.00 0.00 81 1019.4
20260509153717 22 264 4.8 12.9 0.00 0.00 0.00 81 1019.4
20260509153213 22 281 4.8 16.1 0.00 0.00 0.00 81 1019.1
20260509152709 23 207 8.0 12.9 0.00 0.00 0.00 80 1019.0
20260509152207 23 202 4.8 14.5 0.00 0.00 0.00 79 1019.1
20260509151704 23 269 6.4 11.3 0.00 0.00 0.00 79 1019.1
20260509151200 23 280 9.7 16.1 0.00 0.00 0.00 78 1019.1
20260509150658 23 243 9.7 12.9 0.00 0.00 0.00 78 1018.9
20260509150156 23 186 9.7 11.3 0.00 0.00 0.00 80 1019.4
20260509145652 23 234 8.0 16.1 0.00 0.00 0.00 80 1019.5
20260509145147 23 259 8.0 9.7 0.00 0.00 0.00 79 1019.5
20260509144644 23 308 6.4 8.0 0.00 0.00 0.00 81 1019.5
20260509144142 22 178 3.2 4.8 0.00 0.00 0.00 82 1019.6
20260509143638 22 271 8.0 12.9 0.00 0.00 0.00 82 1019.8
20260509143136 22 173 3.2 12.9 0.00 0.00 0.00 82 1019.8
20260509142631 22 225 12.9 17.7 0.00 0.00 0.00 82 1019.9
20260509142128 22 177 3.2 12.9 0.00 0.00 0.00 84 1019.7
20260509141624 22 195 17.7 22.5 0.00 0.00 0.00 84 1020.0
20260509141120 21 204 4.8 12.9 0.00 0.00 0.00 87 1020.0
20260509140617 21 292 6.4 11.3 0.00 0.00 0.00 90 1019.9
20260509140116 20 246 8.0 12.9 0.00 0.00 0.00 92 1020.0
20260509135612 20 254 8.0 11.3 0.00 0.00 0.00 94 1019.9
20260509135111 20 200 3.2 11.3 0.00 0.00 0.00 96 1020.0
20260509134607 20 189 3.2 12.9 0.00 0.00 0.00 96 1020.0
20260509134104 20 209 1.6 4.8 0.00 0.00 0.00 97 1019.9
20260509133601 20 221 1.6 4.8 0.00 0.00 0.00 97 1020.0
20260509133059 19 221 4.8 9.7 0.00 0.00 0.00 98 1019.9
20260509132557 18 203 3.2 8.0 0.00 0.00 0.00 98 1019.7
20260509132055 18 162 3.2 8.0 0.00 0.00 0.00 98 1019.7
20260509131550 18 179 1.6 4.8 0.00 0.00 0.00 98 1020.0
20260509131048 18 196 3.2 3.2 0.00 0.00 0.00 98 1019.8
20260509130543 18 174 4.8 8.0 0.00 0.00 0.00 98 1019.6
20260509130040 18 177 1.6 8.0 0.00 0.00 0.00 99 1019.8
20260509125537 18 191 4.8 9.7 0.00 0.00 0.00 99 1019.6
20260509125033 18 193 3.2 4.8 0.00 0.00 0.00 99 1019.8
20260509124530 18 171 6.4 8.0 0.00 0.00 0.00 99 1019.6
20260509124027 18 180 6.4 9.7 0.00 0.00 0.00 99 1019.8
20260509123525 18 172 4.8 8.0 0.00 0.00 0.00 99 1019.7
20260509123016 18 173 3.2 8.0 0.00 0.00 0.00 99 1019.9
20260509122513 18 160 3.2 3.2 0.00 0.00 0.00 99 1019.7
20260509122009 18 215 3.2 3.2 0.00 0.00 0.00 99 1019.9
20260509121505 17 165 0.0 1.6 0.00 0.00 0.00 99 1019.9
20260509121004 17 211 3.2 3.2 0.00 0.00 0.00 99 1019.7
20260509120501 17 170 1.6 1.6 0.00 0.00 0.00 99 1019.6
20260509115959 17 167 1.6 1.6 0.00 0.00 0.00 99 1019.6
20260509115456 17 188 3.2 3.2 0.00 0.00 0.00 99 1019.8
20260509114953 17 198 3.2 3.2 0.00 0.00 0.00 99 1019.7
20260509114446 17 203 4.8 8.0 0.00 0.00 0.00 99 1019.6
20260509113946 17 167 1.6 3.2 0.00 0.00 0.00 99 1019.7
20260509113442 17 196 3.2 4.8 0.00 0.00 0.00 99 1019.7
20260509112939 17 214 3.2 3.2 0.00 0.00 0.00 99 1019.8
20260509112436 17 207 3.2 4.8 0.00 0.00 0.00 99 1019.6
20260509111933 17 170 0.0 1.6 0.00 0.00 0.00 99 1019.5
20260509111430 17 239 6.4 8.0 0.00 0.00 0.00 99 1019.2
20260509110922 17 211 3.2 8.0 0.00 0.00 0.00 99 1019.2
20260509110417 17 192 3.2 4.8 0.00 0.00 0.00 99 1019.0
20260509105916 17 214 4.8 8.0 0.00 0.00 0.00 99 1019.0
20260509105414 17 181 1.6 9.7 0.00 0.00 0.00 99 1018.8
20260509104911 17 177 3.2 4.8 0.00 0.00 0.00 99 1018.7
20260509104407 17 176 4.8 4.8 0.00 0.00 0.00 99 1018.8
20260509103859 17 176 3.2 3.2 0.00 0.00 0.00 99 1018.7
20260509103355 17 177 1.6 3.2 0.00 0.00 0.00 99 1018.7
20260509102854 17 178 0.0 1.6 0.00 0.00 0.00 99 1018.8
20260509102352 17 184 3.2 4.8 0.00 0.00 0.00 99 1018.6
20260509101847 17 177 4.8 4.8 0.00 0.00 0.00 99 1018.5
20260509101343 17 199 4.8 4.8 0.00 0.00 0.00 99 1018.7
20260509100842 17 171 1.6 3.2 0.00 0.00 0.00 99 1018.8
20260509100339 17 179 1.6 4.8 0.00 0.00 0.00 98 1018.9
20260509095835 17 206 3.2 3.2 0.00 0.00 0.00 98 1018.8
20260509095332 17 186 1.6 4.8 0.00 0.00 0.00 98 1018.6